Location: *
(38.4303°S, 157.0822°W)
Time: 13:08:13
(UTC+00:00)

Cosmos 1892 Rocket - Pass Details

Date: 21 May 2024
Orbit: 604 x 629 km, 82.5° (Epoch: 14 June)

Event Time Altitude Azimuth Distance (km) Brightness Sun altitude
Exits shadow 15:30:22 15° 180° (S) 1,684 5.7 -22.9°
Maximum altitude 15:33:59 68° 98° (E) 668 3.8 -22.2°
Drops below altitude 10° 15:38:19 10° 15° (NNE) 1,964 6.4 -21.4°
Sets 15:40:31 0° 12° (NNE) 2,856 7.3 -21.0°
